Location: Hohegei�
(51.6649°N, 10.6673°E)
Time: 23:28:16
(UTC+00:00)

Daily predictions for brighter satellites

Satellite Brightness Start Highest point End
(mag) Time Altitude Azimuth Time Altitude Azimuth Time Altitude Azimuth
USA 238 DEB 4.3 17:43:12 10° NW 17:50:06 51° NNE 17:57:17 10° ESE
USA 238 4.3 17:43:19 10° NW 17:50:12 51° NNE 17:57:22 10° ESE
NOSS 3-1 (C) 4.2 17:47:47 10° WSW 17:53:24 55° NNW 18:00:06 10° NE
Cosmos 2263 Rocket 2.4 17:51:28 10° S 17:56:45 48° ESE 18:02:08 10° NE
Meteor 2-9 Rocket 4.4 17:54:13 10° S 17:59:56 57° E 18:05:35 10° NNE
Tsikada Rocket 4.5 17:55:25 10° NNW 18:01:33 68° W 18:07:38 10° S
USA 102 3.8 17:55:24 10° SSE 18:01:56 80° ENE 18:04:31 10° NNW
SL-08 RB Rocket 4.3 17:57:47 10° SE 18:02:02 38° ENE 18:06:16 10° N
NOSS 2-3 (E) 4.5 17:58:27 10° WSW 18:02:50 59° NW 18:08:13 10° NE
Cosmos 1844 Rocket 4.2 18:02:00 10° SE 18:04:46 14° E 18:07:32 10° ENE
CZ-2C R/B 3.2 17:59:40 10° SSE 18:04:56 89° ENE 18:10:33 10° NNW
SJ 16-02 1.6 18:01:00 10° SSW 18:05:22 76° WNW 18:09:48 10° NNE
Cosmos 990 Rocket 3.9 18:00:37 10° SSW 18:05:43 68° ESE 18:10:51 10° NNE
Cosmos 2227 4.3 18:00:41 10° SSW 18:06:19 60° ESE 18:11:57 10° NE
ISS -1.6 18:05:50 10° SSE 18:06:57 11° SE 18:08:04 10° ESE
Abrixas rocket 2.9 18:06:23 10° SW 18:08:57 30° SSE 18:11:15 12° ESE
Cosmos 1943 3.5 18:03:33 10° NNW 18:09:12 75° WSW 18:14:51 10° SSE
Okean 2 Rocket 4.0 18:06:50 10° SE 18:10:38 27° E 18:14:26 10° NNE
SJ-11-01 4.3 18:06:32 10° SSE 18:11:15 87° ENE 18:15:59 10° NNW
NOSS 8 (F) 4.1 18:08:56 10° SW 18:12:03 64° SE 18:15:04 10° NE
Okean-O 4.1 18:09:24 10° S 18:13:35 41° W 18:17:49 10° NNW
Lacrosse 5 rocket 1.7 18:09:36 10° WSW 18:13:51 70° NNW 18:18:20 10° ENE
Ariane Rocket 3.3 18:11:52 10° SE 18:16:43 47° ENE 18:21:35 10° N
Cosmos 1437 2.9 18:14:12 10° NNW 18:17:11 67° W 18:20:09 10° S
NOSS 3-2 (A) 4.1 18:11:26 10° NW 18:18:36 67° NE 18:26:32 11° ESE
Meteor 1-21 4.4 18:14:20 10° NNW 18:19:59 81° WSW 18:25:34 10° S
NOSS 2-2 (C) 4.1 18:18:26 10° S 18:21:22 25° ESE 18:24:35 10° ENE
USA 116 3.4 18:18:18 10° NNE 18:21:39 90° ENE 18:25:19 10° SSW
Cosmos 1833 Rocket 4.5 18:18:02 10° NNW 18:21:52 18° NNE 18:25:42 10° ENE
Cosmos 2227 Rocket 4.2 18:18:03 10° WSW 18:22:57 29° NW 18:27:53 10° NNE
GP-B 4.5 18:19:09 10° N 18:23:24 44° W 18:27:36 10° SSW
Cosmos 1300 Rocket 4.2 18:19:53 10° SSE 18:23:52 34° E 18:27:54 10° NNE
SPOT 3 Rocket 4.4 18:22:59 12° ESE 18:27:04 31° ENE 18:31:33 10° N
MetOp-A 4.4 18:23:25 10° SE 18:28:32 48° ENE 18:33:41 10° N
YAOGAN 1 4.1 18:25:08 10° SSW 18:29:11 39° W 18:33:17 10° NNW
HJ-1C 4.2 18:28:18 10° S 18:31:32 52° W 18:34:47 10° NNW
Cosmos 1898 Rocket 3.6 18:27:39 10° SSW 18:32:50 83° WNW 18:38:04 10° NNE
Cosmos 1867 3.7 18:27:26 10° NW 18:32:55 76° SW 18:38:21 10° SSE
CSL-04 Rocket 4.4 18:29:09 10° S 18:34:28 58° WSW 18:39:56 10° NNW
Cosmos 1891 Rocket 4.5 18:28:39 10° S 18:34:38 58° E 18:40:34 10° NNE
Cosmos 1536 Rocket 3.9 18:32:57 10° N 18:37:15 47° ENE 18:41:16 12° SSE
USA 234 4.0 18:35:32 10° ENE 18:41:01 28° SE 18:46:29 10° S
Cosmos 1626 3.9 18:40:28 10° NNE 18:42:53 16° ENE 18:43:18 16° ENE
Meteor 2-5 Rocket 4.4 18:39:34 10° N 18:44:41 35° ENE 18:48:05 19° ESE
DMSP B5D2-2 4.5 18:40:31 10° NNE 18:45:32 41° E 18:50:31 10° SSE
CREW DRAGON DEMO-1 DEB 2.7 18:43:28 10° W 18:46:31 88° N 18:47:59 28° E
Cosmos 1782 Rocket 4.3 18:45:47 10° SSW 18:50:07 56° WNW 18:54:32 10° N
Cosmos 1975 4.3 18:47:20 10° SW 18:51:14 42° WNW 18:55:08 10° N
Cosmos 1025 Rocket 3.0 18:46:54 10° N 18:51:18 81° E 18:55:41 10° SSE
CZ-4 R/B 4.2 18:48:23 10° SW 18:51:35 21° W 18:54:48 10° NW
Cosmos 2151 Rocket 3.8 18:47:25 10° SSE 18:51:42 48° E 18:56:02 10° NNE
Cosmos 372 Rocket 4.0 18:46:51 10° S 18:51:58 57° ESE 18:57:06 10° NNE
USA 186 1.8 18:48:57 10° S 18:52:03 76° WSW 18:55:19 10° NNW
NOSS 3-2 (C) 4.1 18:45:31 10° NW 18:52:43 69° NE 18:58:45 20° ESE
Cosmos 2150 Rocket 4.4 18:49:28 10° S 18:54:28 40° ESE 18:59:32 10° NE
Cosmos 1072 Rocket 4.5 18:51:20 10° S 18:57:34 84° E 19:03:57 10° N
Nadezhda 4 Rocket 3.9 18:51:51 10° N 18:58:00 74° ENE 19:04:07 10° SSE
Cosmos 1805 4.2 19:00:43 27° E 19:00:43 27° E 19:04:03 10° NNE
Cosmos 2082 Rocket 3.9 18:57:45 10° NNW 19:01:46 20° NNE 19:04:43 14° ENE
OBJECT-B 0.9 19:01:22 34° SE 19:02:29 55° ENE 19:05:41 10° N
Cosmos 1937 Rocket 3.9 18:57:20 10° SW 19:02:34 67° WNW 19:07:47 10° NNE
MOS 1 Rocket 3.6 18:58:07 10° N 19:02:39 65° WNW 19:06:57 10° SSW
Cosmos 2034 Rocket 4.0 18:57:31 10° S 19:03:48 65° E 19:10:05 10° NNE
Cosmos 1125 Rocket 4.1 19:00:44 10° SSE 19:05:28 34° ESE 19:10:14 10° NE
FREGAT/IRIS 2.6 19:05:32 29° S 19:06:38 63° WSW 19:09:14 10° NNW
Exosat Rocket 4.2 19:01:52 10° S 19:06:45 33° ESE 19:11:12 10° NE
Cosmos 1674 2.7 19:04:17 10° N 19:08:07 60° ENE 19:09:42 32° SE
COSMOS 2406 4.1 19:04:40 10° NNW 19:09:50 34° NE 19:12:17 24° E
Meteor 1-24 Rocket 4.1 19:06:47 10° N 19:11:58 42° ENE 19:14:11 29° ESE
In-Cosmos 22 4.4 19:09:51 10° NNW 19:15:06 65° W 19:20:22 10° S
SL-14 R/B 4.2 19:12:37 10° N 19:16:08 30° ENE 19:16:09 30° ENE
ERS-1 Rocket 4.4 19:17:24 20° ENE 19:18:16 21° NE 19:21:58 10° N
NOSS 2-2 (E) 3.1 19:14:54 10° SW 19:18:27 86° NW 19:22:41 10° NE
Cosmos 1707 4.4 19:17:01 10° NNW 19:20:31 34° W 19:24:00 10° SSW
Resurs 01 Rocket 1.7 19:19:16 36° SE 19:20:49 57° ENE 19:25:13 10° N
H-2A R/B 3.9 19:17:23 10° SSW 19:21:39 28° W 19:26:01 10° NNW
CZ-2C R/B 2.7 19:17:33 10° NNE 19:23:06 89° ESE 19:28:43 10° SSW
ATLAS 2AS CENTAUR R/B 3.9 19:24:48 25° E 19:24:48 25° E 19:29:50 10° ENE
SJ-6B 3.6 19:21:47 13° S 19:24:52 47° W 19:28:32 10° NNW
Lacrosse 4 Rocket 3.3 19:22:12 10° N 19:24:53 17° NNE 19:25:54 16° NE
KORONAS-FOTON 3.7 19:21:49 10° N 19:25:46 90° E 19:27:14 37° S
Landsat 7 4.4 19:25:47 34° E 19:26:38 37° ENE 19:31:01 10° N
NOSS 2-2 (D) 3.1 19:23:21 10° SW 19:26:54 89° WNW 19:31:03 10° NE
Cosmos 1048 Rocket 4.4 19:25:29 10° NNW 19:30:44 65° WSW 19:34:10 22° S
Cosmos 1766 3.7 19:33:39 43° ENE 19:33:39 43° ENE 19:36:50 10° NNE
CENTAUR R/B 3.1 19:25:40 10° NW 19:33:35 89° SW 19:38:32 30° SE
ATLAS CENTAUR R/B 3.9 19:31:42 10° NW 19:33:40 14° NNW 19:35:36 10° NNE
SPOT 1/Viking Rocket 4.1 19:33:46 35° E 19:34:43 38° ENE 19:39:29 10° N
Cosmos 1844 3.8 19:30:16 10° S 19:35:46 52° ESE 19:41:15 10° NE
IGS 5A 4.0 19:37:08 41° ENE 19:37:08 41° ENE 19:41:01 10° N
Cosmos 1634 Rocket 4.0 19:34:23 29° SSE 19:37:25 54° E 19:43:27 10° NNE
SWAS 4.5 19:33:42 10° NW 19:38:01 78° WSW 19:39:03 50° SSE
ARIANE 5 R/B 2.8 19:37:43 49° E 19:38:07 50° ENE 19:42:20 10° N
ATLAS 3B R/B 3.1 19:33:08 10° NW 19:39:45 52° NNE 19:42:49 32° E
Cosmos 1269 Rocket 4.0 19:34:44 10° NNW 19:40:03 65° ENE 19:41:30 46° ESE
Cosmos 2263 Rocket 3.6 19:35:40 10° WSW 19:40:51 38° NW 19:46:06 10° NNE
USA 238 DEB 4.1 19:34:17 10° NW 19:41:23 63° SW 19:45:38 27° SSE
USA 238 4.1 19:34:24 10° NW 19:41:29 63° SW 19:45:43 27° SSE
Cosmos 2285 Rocket 4.0 19:35:56 10° S 19:42:05 59° ESE 19:48:19 10° NNE
MetOp-B 4.1 19:41:10 43° SE 19:42:48 65° ENE 19:48:07 10° N
ISS -1.8 19:39:53 10° SW 19:41:14 21° SW 19:41:14 21° SW
Abrixas rocket 3.9 19:41:12 10° WSW 19:42:32 23° WSW 19:42:32 23° WSW
Cosmos 1844 Rocket 2.5 19:42:08 10° SSW 19:47:41 75° ESE 19:53:18 10° NNE
Spot 2 Rocket 3.6 19:48:07 49° E 19:48:49 53° ENE 19:53:44 10° N
Cosmos 1627 Rocket 4.5 19:43:50 10° N 19:50:16 88° E 19:53:33 31° S
Okean 1 Rocket 3.0 19:51:22 45° S 19:52:44 89° ESE 19:57:16 10° N
Lacrosse 5 rocket 2.5 19:49:23 10° WNW 19:53:33 41° N 19:55:13 29° NE
Cosmos 1092 Rocket 4.1 19:50:16 10° NNW 19:56:24 70° W 20:00:15 24° S
Meteor 1-15 Rocket 4.4 19:54:22 10° SSW 19:59:59 72° WNW 20:05:44 10° N
Cosmos 2026 Rocket 4.1 19:57:34 10° NNW 20:03:57 80° W 20:06:56 34° S
CZ-2C R/B 3.6 19:59:58 10° NNE 20:04:25 81° WNW 20:05:30 52° SSW
Meteor 2-19 Rocket 4.5 19:58:35 10° N 20:04:41 60° ENE 20:05:40 53° ESE
SPOT 3 Rocket 4.3 20:03:39 26° SSW 20:06:17 49° W 20:11:18 10° NNW
Cosmos 1833 Rocket 2.8 20:01:29 10° NNW 20:07:05 57° NE 20:07:46 53° E
NOSS 2-2 (C) 4.4 20:08:11 10° WSW 20:11:39 43° NW 20:15:45 10° NE
Cosmos 2251 Rocket 4.2 20:07:37 10° NNW 20:12:43 41° NE 20:12:49 41° ENE
Terra 2.8 20:19:13 34° NE 20:19:13 34° NE 20:22:46 10° N
Cosmos 1626 3.1 20:14:50 10° NNW 20:17:51 45° WNW 20:17:51 45° WNW
Cosmos 1892 Rocket 3.7 20:16:14 10° NNW 20:20:06 68° NW 20:20:06 68° NW
Cosmos 2279 Rocket 3.9 20:20:51 63° SE 20:21:42 71° E 20:27:57 10° NNE
Cosmos 2142 Rocket 4.4 20:21:19 54° S 20:22:54 82° E 20:29:10 10° NNE
USA 234 3.1 20:19:23 16° ENE 20:24:44 75° SSE 20:31:18 10° SW
CARTOSAT-1 4.4 20:29:30 44° N 20:29:30 44° N 20:32:37 10° N
OBJECT-B 3.9 20:34:34 11° W 20:35:11 12° W 20:36:23 10° WNW
SPOT 5 3.2 20:40:10 66° NNE 20:40:10 66° NNE 20:44:53 10° NNW
Cosmos 2082 Rocket 2.4 20:41:22 10° NNW 20:46:33 63° NNE 20:46:33 63° NNE
Okean 1-7 Rocket 4.4 20:42:58 10° NNW 20:46:41 51° NW 20:46:41 51° NW
COSMOS 2406 3.5 20:48:54 10° NW 20:54:20 57° WSW 20:54:20 57° WSW
ERS-1 Rocket 3.4 20:57:24 60° NW 20:57:24 60° NW 21:01:37 10° NNW
Resurs 01 Rocket 3.7 20:56:51 19° WSW 20:57:40 20° W 21:01:00 10° NW
Cosmos 2098 Rocket 4.1 20:55:58 10° NNW 21:03:15 73° W 21:03:50 69° SW
Lacrosse 4 Rocket 3.3 21:00:12 10° NNW 21:02:11 28° NNW 21:02:11 28° NNW
Cosmos 2266 Rocket 3.9 20:59:51 10° NNW 21:05:35 78° NW 21:05:35 78° NW
Meteor 1-21 Rocket 4.5 21:04:06 10° NNW 21:09:09 68° NW 21:09:09 68° NW
Cosmos 1655 Rocket 4.2 21:06:04 10° NNW 21:12:13 60° W 21:12:30 60° WSW
ATLAS 2AS CENTAUR R/B 2.9 21:11:59 59° SSW 21:13:46 84° SE 21:21:38 10° NE
ATLAS CENTAUR R/B 4.1 21:12:26 10° NNW 21:13:41 12° N 21:13:41 12° N
Cosmos 2278 Rocket 3.6 21:22:34 30° NE 21:22:34 30° NE 21:25:21 10° NNE
CENTAUR R/B 4.3 21:16:56 10° WNW 21:23:49 31° WSW 21:25:44 28° SW
ATLAS 3B R/B 3.1 21:23:57 10° NW 21:30:03 54° WSW 21:30:03 54° WSW
Lacrosse 5 rocket 3.6 21:28:55 10° WNW 21:30:51 25° NW 21:30:51 25° NW
Cosmos 1833 Rocket 4.2 21:45:51 10° NW 21:49:28 28° W 21:49:28 28° W
Terra 3.8 21:58:07 25° NW 21:58:07 25° NW 22:00:31 10° NNW
USA 234 3.5 22:01:17 10° ENE 22:07:44 63° NNW 22:14:10 10° W
Cosmos 2082 Rocket 4.2 22:26:05 10° NW 22:28:23 20° WNW 22:28:23 20° WNW
Cosmos 1943 Rocket 4.2 22:35:45 19° NE 22:35:45 19° NE 22:37:23 10° NE
COSMOS 2455 4.2 22:35:51 33° NNE 22:35:51 33° NNE 22:39:02 10° NE
NOSS 3-4 (A) 4.5 22:41:29 42° NW 22:41:56 42° NNW 22:48:14 10° NE
NOSS 3-4 (C) 4.5 22:41:39 42° NW 22:42:02 42° NNW 22:48:21 10° NE
Cosmos 2369 Rocket 4.2 22:59:19 22° NE 22:59:19 22° NE 23:01:17 10° NE
CZ-4C R/B 3.8 23:02:00 31° NE 23:02:00 31° NE 23:05:23 10° NE
Cosmos 2278 Rocket 3.9 23:04:22 26° NW 23:04:25 26° NW 23:09:11 10° NNE
ATLAS 2AS CENTAUR R/B 3.9 22:59:09 15° W 23:05:31 45° NNW 23:12:52 10° NE
NOSS 3-1 (C) 4.2 23:23:03 10° NW 23:28:49 62° NNW 23:28:49 62° NNW
Cosmos 2227 Rocket 4.1 23:37:33 10° NNW 23:42:09 25° NE 23:43:29 23° ENE
USA 234 3.7 23:43:59 10° E 23:50:22 58° N 23:56:45 10° WNW
